TimeCEST,TemperatureF,Dew PointF,Humidity,Sea Level PressureIn,VisibilityMPH,Wind Direction,Wind SpeedMPH,Gust SpeedMPH,PrecipitationIn,Events,Conditions,WindDirDegrees,DateUTC
12:25 AM,66.2,59.0,78,29.95,6.2,East,9.2,-,N/A,,Partly Cloudy,80,2013-08-23 22:25:00
12:55 AM,66.2,59.0,78,29.92,6.2,East,9.2,-,N/A,,Partly Cloudy,90,2013-08-23 22:55:00
1:25 AM,66.2,59.0,78,29.92,-9999.0,East,9.2,-,N/A,,Clear,90,2013-08-23 23:25:00
1:55 AM,66.2,59.0,78,29.92,6.2,East,10.4,-,N/A,,Partly Cloudy,90,2013-08-23 23:55:00
2:00 AM,65,58,71,29.93,11,East,8.9,,,,Partly Cloudy,100,2013-08-24 00:00:00
2:25 AM,64.4,57.2,77,29.92,6.2,East,8.1,-,N/A,,Partly Cloudy,100,2013-08-24 00:25:00
2:55 AM,64.4,57.2,77,29.89,-9999.0,East,8.1,-,N/A,,Clear,100,2013-08-24 00:55:00
3:25 AM,64.4,57.2,77,29.89,-9999.0,ESE,10.4,-,N/A,,Clear,110,2013-08-24 01:25:00
3:55 AM,64.4,57.2,77,29.89,-9999.0,ESE,9.2,-,N/A,,Clear,120,2013-08-24 01:55:00
4:25 AM,64.4,57.2,77,29.89,-9999.0,ESE,8.1,-,N/A,,Clear,120,2013-08-24 02:25:00
4:55 AM,64.4,57.2,77,29.89,-9999.0,ESE,8.1,-,N/A,,Clear,120,2013-08-24 02:55:00
5:00 AM,64,57,70,29.89,11,ESE,8.9,,,,Overcast,120,2013-08-24 03:00:00
5:25 AM,64.4,57.2,77,29.86,-9999.0,ESE,8.1,-,N/A,,Clear,120,2013-08-24 03:25:00
5:55 AM,64.4,55.4,73,29.86,-9999.0,ESE,9.2,-,N/A,,Clear,110,2013-08-24 03:55:00
6:25 AM,64.4,55.4,73,29.86,-9999.0,ESE,11.5,-,N/A,,Clear,110,2013-08-24 04:25:00
6:55 AM,64.4,55.4,73,29.86,-9999.0,ESE,11.5,-,N/A,,Clear,120,2013-08-24 04:55:00
7:25 AM,64.4,55.4,73,29.86,-9999.0,ESE,12.7,-,N/A,,Clear,110,2013-08-24 05:25:00
7:55 AM,64.4,55.4,73,29.86,-9999.0,ESE,12.7,-,N/A,,Clear,110,2013-08-24 05:55:00
8:25 AM,64.4,55.4,73,29.86,-9999.0,ESE,11.5,-,N/A,,Clear,110,2013-08-24 06:25:00
8:55 AM,64.4,55.4,73,29.83,-9999.0,East,10.4,-,N/A,,Clear,100,2013-08-24 06:55:00
9:25 AM,66.2,55.4,68,29.83,-9999.0,East,12.7,-,N/A,,Clear,100,2013-08-24 07:25:00
9:55 AM,68.0,57.2,68,29.83,-9999.0,East,12.7,-,N/A,,Clear,100,2013-08-24 07:55:00
10:25 AM,68.0,57.2,68,29.83,-9999.0,ESE,15.0,-,N/A,,Clear,110,2013-08-24 08:25:00
10:55 AM,68.0,57.2,68,29.83,-9999.0,ESE,11.5,-,N/A,,Clear,120,2013-08-24 08:55:00
11:00 AM,69,57,58,29.86,14,SE,11.2,,,,Mostly Cloudy,130,2013-08-24 09:00:00
11:25 AM,69.8,57.2,64,29.83,-9999.0,SE,12.7,-,N/A,,Clear,130,2013-08-24 09:25:00
11:55 AM,71.6,59.0,64,29.83,-9999.0,ESE,9.2,-,N/A,,Clear,120,2013-08-24 09:55:00
12:25 PM,71.6,59.0,64,29.83,-9999.0,SE,11.5,-,N/A,,Clear,130,2013-08-24 10:25:00
12:55 PM,71.6,59.0,64,29.83,-9999.0,ESE,12.7,-,N/A,,Clear,120,2013-08-24 10:55:00
1:25 PM,71.6,57.2,60,29.83,-9999.0,SE,9.2,-,N/A,,Clear,130,2013-08-24 11:25:00
1:55 PM,73.4,59.0,61,29.83,6.2,ESE,10.4,-,N/A,,Partly Cloudy,110,2013-08-24 11:55:00
2:00 PM,74,59,49,29.84,11,ESE,11.2,,,,Partly Cloudy,120,2013-08-24 12:00:00
2:25 PM,73.4,59.0,61,29.83,-9999.0,ESE,10.4,-,N/A,,Clear,110,2013-08-24 12:25:00
2:55 PM,73.4,59.0,61,29.83,-9999.0,SE,9.2,-,N/A,,Clear,130,2013-08-24 12:55:00
3:25 PM,73.4,59.0,61,29.80,-9999.0,SE,9.2,-,N/A,,Clear,130,2013-08-24 13:25:00
3:55 PM,73.4,59.0,61,29.80,-9999.0,SE,9.2,-,N/A,,Clear,130,2013-08-24 13:55:00
4:25 PM,73.4,59.0,61,29.80,6.2,SE,9.2,-,N/A,,Partly Cloudy,130,2013-08-24 14:25:00
4:55 PM,73.4,59.0,61,29.80,6.2,SSE,9.2,-,N/A,,Partly Cloudy,160,2013-08-24 14:55:00
5:00 PM,73,60,54,29.83,10,SSE,8.9,,,,Overcast,160,2013-08-24 15:00:00
5:25 PM,71.6,59.0,64,29.80,6.2,South,12.7,-,N/A,Rain,Light Rain,180,2013-08-24 15:25:00
5:55 PM,69.8,60.8,73,29.80,6.2,South,10.4,-,N/A,,Partly Cloudy,190,2013-08-24 15:55:00
6:25 PM,68.0,60.8,78,29.80,6.2,SSW,11.5,-,N/A,,Partly Cloudy,200,2013-08-24 16:25:00
6:55 PM,68.0,64.4,88,29.80,5.6,South,11.5,-,N/A,Rain,Light Rain,190,2013-08-24 16:55:00
7:25 PM,66.2,64.4,94,29.80,3.7,South,9.2,-,N/A,Rain,Light Rain,190,2013-08-24 17:25:00
7:55 PM,64.4,60.8,88,29.83,5.0,South,10.4,-,N/A,Rain,Light Rain,180,2013-08-24 17:55:00
8:00 PM,65,62,86,29.83,6,South,11.2,,,Rain,Drizzle,190,2013-08-24 18:00:00
8:25 PM,62.6,60.8,94,29.83,5.6,South,9.2,-,N/A,Rain,Light Rain,180,2013-08-24 18:25:00
8:55 PM,62.6,60.8,94,29.83,6.2,SSE,4.6,-,N/A,Rain,Light Rain,150,2013-08-24 18:55:00
9:25 PM,60.8,60.8,100,29.80,-9999.0,East,3.5,-,N/A,,Clear,80,2013-08-24 19:25:00
9:55 PM,62.6,60.8,94,29.80,-9999.0,ENE,2.3,-,N/A,,Clear,60,2013-08-24 19:55:00
10:25 PM,60.8,60.8,100,29.80,-9999.0,East,3.5,-,N/A,,Clear,80,2013-08-24 20:25:00
10:55 PM,62.6,60.8,94,29.83,-9999.0,ESE,4.6,-,N/A,,Clear,110,2013-08-24 20:55:00
11:00 PM,62,61,95,29.83,5,ESE,4.5,,,,Mist,110,2013-08-24 21:00:00
11:25 PM,62.6,60.8,94,29.83,6.2,East,4.6,-,N/A,,Partly Cloudy,90,2013-08-24 21:25:00
11:55 PM,62.6,60.8,94,29.83,4.3,ESE,6.9,-,N/A,,Mostly Cloudy,110,2013-08-24 21:55:00